Time,TemperatureF,DewpointF,PressureIn,WindDirection,WindDirectionDegrees,WindSpeedMPH,WindSpeedGustMPH,Humidity,HourlyPrecipIn,Conditions,Clouds,dailyrainin,SoftwareType,DateUTC
2013-04-26 00:22:00,67.0,46.0,29.95,NW,310,22.0,29.0,47,0.00,,,-99.99,,2013-04-26 07:22:00,
2013-04-26 00:31:00,67.0,46.0,29.95,NW,310,22.0,29.0,47,0.00,,,-99.99,,2013-04-26 07:31:00,
2013-04-26 00:42:00,67.0,46.0,29.95,NW,310,22.0,29.0,47,0.00,,,-99.99,,2013-04-26 07:42:00,
2013-04-26 01:21:00,65.0,46.0,29.96,NW,310,18.0,33.0,50,0.00,,,-99.99,,2013-04-26 08:21:00,
2013-04-26 01:31:00,65.0,46.0,29.96,NW,310,18.0,33.0,50,0.00,,,-99.99,,2013-04-26 08:31:00,
2013-04-26 01:42:00,65.0,46.0,29.96,NW,310,18.0,33.0,50,0.00,,,-99.99,,2013-04-26 08:42:00,
2013-04-26 02:21:00,63.0,47.0,29.96,WNW,300,20.0,31.0,55,0.00,,,-99.99,,2013-04-26 09:21:00,
2013-04-26 02:33:00,63.0,47.0,29.96,WNW,300,20.0,31.0,55,0.00,,,-99.99,,2013-04-26 09:33:00,
2013-04-26 02:42:00,63.0,47.0,29.96,WNW,300,20.0,31.0,55,0.00,,,-99.99,,2013-04-26 09:42:00,
2013-04-26 03:23:00,65.0,45.0,29.96,NW,310,12.0,30.0,48,0.00,,,-99.99,,2013-04-26 10:23:00,
2013-04-26 03:33:00,65.0,45.0,29.96,NW,310,12.0,30.0,48,0.00,,,-99.99,,2013-04-26 10:33:00,
2013-04-26 03:42:00,65.0,45.0,29.96,NW,310,12.0,30.0,48,0.00,,,-99.99,,2013-04-26 10:42:00,
2013-04-26 04:22:00,65.0,45.0,29.96,NW,310,24.0,34.0,48,0.00,,,-99.99,,2013-04-26 11:22:00,
2013-04-26 04:32:00,65.0,45.0,29.96,NW,310,24.0,34.0,48,0.00,,,-99.99,,2013-04-26 11:32:00,
2013-04-26 04:41:00,65.0,45.0,29.96,NW,310,24.0,34.0,48,0.00,,,-99.99,,2013-04-26 11:41:00,
2013-04-26 05:21:00,64.0,43.0,29.97,NW,310,20.0,28.0,47,0.00,,,-99.99,,2013-04-26 12:21:00,
2013-04-26 05:32:00,64.0,43.0,29.97,NW,310,20.0,28.0,47,0.00,,,-99.99,,2013-04-26 12:32:00,
2013-04-26 05:41:00,64.0,43.0,29.97,NW,310,20.0,28.0,47,0.00,,,-99.99,,2013-04-26 12:41:00,
2013-04-26 06:21:00,63.0,45.0,29.98,NW,310,13.0,22.0,51,0.00,,,-99.99,,2013-04-26 13:21:00,
2013-04-26 06:31:00,63.0,45.0,29.98,NW,310,13.0,22.0,51,0.00,,,-99.99,,2013-04-26 13:31:00,
2013-04-26 06:41:00,63.0,45.0,29.98,NW,310,13.0,22.0,51,0.00,,,-99.99,,2013-04-26 13:41:00,
2013-04-26 07:21:00,62.0,43.0,30.01,WNW,300,6.0,15.0,49,0.00,,,-99.99,,2013-04-26 14:21:00,
2013-04-26 07:32:00,62.0,43.0,30.01,WNW,300,6.0,15.0,49,0.00,,,-99.99,,2013-04-26 14:32:00,
2013-04-26 07:41:00,62.0,43.0,30.01,WNW,300,6.0,15.0,49,0.00,,,-99.99,,2013-04-26 14:41:00,
2013-04-26 08:42:00,70.0,44.0,30.06,WNW,300,14.0,20.0,39,0.00,,,-99.99,,2013-04-26 15:42:00,
2013-04-26 09:23:00,70.0,44.0,30.06,WNW,300,14.0,20.0,39,0.00,,,-99.99,,2013-04-26 16:23:00,
2013-04-26 09:33:00,70.0,44.0,30.06,WNW,300,14.0,20.0,39,0.00,,,-99.99,,2013-04-26 16:33:00,
2013-04-26 10:21:00,74.0,44.0,30.07,WNW,290,10.0,17.0,34,0.00,,,-99.99,,2013-04-26 17:21:00,
2013-04-26 10:31:00,74.0,44.0,30.07,WNW,290,10.0,17.0,34,0.00,,,-99.99,,2013-04-26 17:31:00,
2013-04-26 10:41:00,74.0,44.0,30.07,WNW,290,10.0,17.0,34,0.00,,,-99.99,,2013-04-26 17:41:00,
2013-04-26 16:21:00,87.0,40.0,29.98,SSE,150,2.0,12.0,19,0.00,,,-99.99,,2013-04-26 23:21:00,
2013-04-26 16:32:00,87.0,40.0,29.98,SSE,150,2.0,12.0,19,0.00,,,-99.99,,2013-04-26 23:32:00,
2013-04-26 16:42:00,87.0,40.0,29.98,SSE,150,2.0,12.0,19,0.00,,,-99.99,,2013-04-26 23:42:00,
2013-04-26 17:21:00,87.0,40.0,29.97,SSE,150,13.0,18.0,19,0.00,,,-99.99,,2013-04-27 00:21:00,
2013-04-26 17:32:00,87.0,40.0,29.97,SSE,150,13.0,18.0,19,0.00,,,-99.99,,2013-04-27 00:32:00,
2013-04-26 17:41:00,87.0,40.0,29.97,SSE,150,13.0,18.0,19,0.00,,,-99.99,,2013-04-27 00:41:00,
2013-04-26 18:21:00,88.0,35.0,29.96,SSE,150,9.0,12.0,15,0.00,,,-99.99,,2013-04-27 01:21:00,
2013-04-26 18:32:00,88.0,35.0,29.96,SSE,150,9.0,12.0,15,0.00,,,-99.99,,2013-04-27 01:32:00,
2013-04-26 18:41:00,88.0,35.0,29.96,SSE,150,9.0,12.0,15,0.00,,,-99.99,,2013-04-27 01:41:00,
2013-04-26 19:22:00,86.0,35.0,29.96,North,0,0.0,4.0,16,0.00,,,-99.99,,2013-04-27 02:22:00,
2013-04-26 19:32:00,86.0,35.0,29.96,North,0,0.0,4.0,16,0.00,,,-99.99,,2013-04-27 02:32:00,
2013-04-26 19:42:00,86.0,35.0,29.96,North,0,0.0,4.0,16,0.00,,,-99.99,,2013-04-27 02:42:00,
2013-04-26 20:22:00,83.0,38.0,29.98,North,-999,0.0,0.0,20,0.00,,,-99.99,,2013-04-27 03:22:00,
2013-04-26 20:32:00,83.0,38.0,29.98,North,-999,0.0,0.0,20,0.00,,,-99.99,,2013-04-27 03:32:00,
2013-04-26 20:42:00,83.0,38.0,29.98,North,-999,0.0,0.0,20,0.00,,,-99.99,,2013-04-27 03:42:00,
2013-04-26 20:43:00,80.0,46.0,29.99,ESE,110,12.0,32.0,30,0.00,,,-99.99,,2013-04-27 03:43:00,
2013-04-26 21:22:00,80.0,46.0,29.99,ESE,110,12.0,32.0,30,0.00,,,-99.99,,2013-04-27 04:22:00,
2013-04-26 21:33:00,80.0,46.0,29.99,ESE,110,12.0,32.0,30,0.00,,,-99.99,,2013-04-27 04:33:00,
2013-04-26 22:22:00,77.0,46.0,30.01,NW,310,18.0,32.0,34,0.00,,,-99.99,,2013-04-27 05:22:00,
2013-04-26 22:32:00,77.0,46.0,30.01,NW,310,18.0,32.0,34,0.00,,,-99.99,,2013-04-27 05:32:00,
2013-04-26 22:42:00,77.0,46.0,30.01,NW,310,18.0,32.0,34,0.00,,,-99.99,,2013-04-27 05:42:00,
2013-04-26 23:22:00,76.0,46.0,30.01,NW,320,12.0,15.0,35,0.00,,,-99.99,,2013-04-27 06:22:00,
2013-04-26 23:32:00,76.0,46.0,30.01,NW,320,12.0,15.0,35,0.00,,,-99.99,,2013-04-27 06:32:00,
2013-04-26 23:41:00,76.0,46.0,30.01,NW,320,12.0,15.0,35,0.00,,,-99.99,,2013-04-27 06:41:00,